AEE245 LGRP-EETN

Flight info

Callsign AEE245
Flight time N/A
Altitude 34000
Route VANES B34 GILOS UM601 ADESO UN133 KOROS/N0453F310 UT162 LMO/N0452F340 UN128 PEREN UN133 ATFIR DCT LOMOS DCT PADGU/N0455F360 DCT DEGET DCT NIPUR DCT DEMOP/N0458F350 DCT NEPOX DCT SUWGI DCT BOKSU DCT INBOV DCT GUNTA DCT KEMET
Aircraft A320/M-SDE3FGHIRWY/LB1

Departure

Time 2026-04-29 13:55
Airport Rhodes International Airport "Diagoras" (LGRP)

Arrival

Time N/A
Airport Lennart Meri Tallinn Airport (EETN)
Time Latitude Longitude Altitude Speed Heading
2026-04-29 13:29 36.40398 28.09232 29 ft 0 kts 160°
2026-04-29 13:48 36.40407 28.09229 29 ft 4 kts 158°
2026-04-29 13:48 36.40431 28.09214 29 ft 4 kts 145°
2026-04-29 13:48 36.40449 28.09192 29 ft 4 kts 107°
2026-04-29 13:49 36.40450 28.09175 29 ft 0 kts 69°
2026-04-29 13:50 36.40451 28.09179 29 ft 1 kts 69°
2026-04-29 13:51 36.40457 28.09198 29 ft 3 kts 69°
2026-04-29 13:51 36.40474 28.09253 29 ft 11 kts 69°
2026-04-29 13:51 36.40523 28.09355 29 ft 15 kts 43°
2026-04-29 13:51 36.40593 28.09456 29 ft 16 kts 62°
2026-04-29 13:52 36.40637 28.09594 27 ft 18 kts 69°
2026-04-29 13:52 36.40685 28.09750 27 ft 21 kts 69°
2026-04-29 13:52 36.40739 28.09929 22 ft 23 kts 71°
2026-04-29 13:52 36.40795 28.10125 20 ft 25 kts 70°
2026-04-29 13:53 36.40851 28.10316 23 ft 16 kts 70°
2026-04-29 13:53 36.40908 28.10426 23 ft 16 kts 18°
2026-04-29 13:53 36.41000 28.10358 22 ft 17 kts 309°
2026-04-29 13:53 36.41013 28.10257 23 ft 11 kts 252°
2026-04-29 13:54 36.40958 28.10059 22 ft 53 kts 250°
2026-04-29 13:54 36.40762 28.09390 31 ft 108 kts 250°
2026-04-29 13:54 36.40453 28.08332 31 ft 151 kts 250°
2026-04-29 13:54 36.40103 28.07066 467 ft 154 kts 250°
2026-04-29 13:55 36.39830 28.05795 1073 ft 154 kts 264°
2026-04-29 13:55 36.39726 28.04460 1633 ft 157 kts 268°
2026-04-29 13:55 36.39641 28.03050 1915 ft 172 kts 268°
2026-04-29 13:55 36.39545 28.01477 2110 ft 194 kts 268°
2026-04-29 13:56 36.39435 27.99787 2295 ft 215 kts 267°
2026-04-29 13:56 36.39301 27.97855 2546 ft 236 kts 266°
2026-04-29 13:56 36.39144 27.95724 2897 ft 257 kts 265°
2026-04-29 13:56 36.38971 27.93474 3612 ft 264 kts 265°
2026-04-29 13:57 36.38790 27.91189 4419 ft 268 kts 265°
2026-04-29 13:57 36.38600 27.88864 5202 ft 272 kts 265°
2026-04-29 13:57 36.38410 27.86538 5976 ft 275 kts 265°
2026-04-29 13:57 36.38369 27.84929 6481 ft 277 kts 272°
2026-04-29 13:58 36.38410 27.81747 7504 ft 279 kts 271°
2026-04-29 13:58 36.38435 27.79334 8294 ft 280 kts 271°
2026-04-29 13:58 36.38458 27.76906 9028 ft 283 kts 271°
2026-04-29 13:58 36.38481 27.74452 9768 ft 286 kts 271°
2026-04-29 13:59 36.38625 27.72039 10319 ft 293 kts 279°
2026-04-29 13:59 36.38949 27.69445 10463 ft 315 kts 279°
2026-04-29 13:59 36.39271 27.66968 10569 ft 334 kts 280°
2026-04-29 13:59 36.39653 27.64042 10852 ft 348 kts 279°
2026-04-29 14:00 36.40037 27.61049 11383 ft 353 kts 279°
2026-04-29 14:00 36.40414 27.58060 11962 ft 356 kts 279°
2026-04-29 14:00 36.40795 27.55010 12565 ft 359 kts 279°
2026-04-29 14:00 36.41177 27.51931 13175 ft 362 kts 279°
2026-04-29 14:01 36.41560 27.48832 13776 ft 364 kts 279°
2026-04-29 14:01 36.41945 27.45713 14317 ft 366 kts 279°
2026-04-29 14:01 36.42330 27.42582 14868 ft 367 kts 279°